Elizabeth City, NC

5:19 AM EDT on May 29, 2017 (GMT -0400)
Elizabeth City Cgas-Regional

Weather History for KECG - September, 2012

Change the Weather History Date:

Thursday, September 20, 2012

  Actual Average Record
Temperature  
Mean Temperature 72 °F 71 °F  
Max Temperature 80 °F 80 °F 93 °F (1942)
Min Temperature 63 °F 62 °F 43 °F (1959)
Degree Days  
Heating Degree Days 0 0  
Month to date heating degree days 0 0  
Since 1 July heating degree days 0 0  
Cooling Degree Days 7 7  
Month to date cooling degree days 246 175  
Year to date cooling degree days 2082 1471  
Growing Degree Days 22 (Base 50)    
Moisture  
Dew Point 58 °F    
Average Humidity 60    
Maximum Humidity 73    
Minimum Humidity 47    
Precipitation  
Precipitation 0.00 in 0.12 in 6.28 in (1938)
Month to date precipitation 1.45 2.72  
Year to date precipitation 37.94 36.68  
Snow  
Snow 0.00 in - 0.00 in (2002)
Month to date snowfall 0.0  
Since 1 July snowfall 0.0  
Snow Depth 0.00 in    
Sea Level Pressure  
Sea Level Pressure 30.10 in    
Wind  
Wind Speed 10 mph (North)    
Max Wind Speed 16 mph    
Max Gust Speed 20 mph    
Visibility 10 miles    
Events      
T = Trace of Precipitation, MM = Missing Value Source: NWS Daily Summary

Daily Weather History Graph

Daily Weather History Graph

Search for Another Location

Airport or City:

Trip Planner

Search our weather history database for the weather conditions in past years. The results will help you decide how hot, cold, wet, or windy it might be!

Date:

Astronomy

Sep. 20, 2012 Rise Set
Actual Time 6:51 AM EDT 7:03 PM EDT
Civil Twilight 6:25 AM EDT 7:29 PM EDT
Nautical Twilight 5:55 AM EDT 7:59 PM EDT
Astronomical Twilight 5:25 AM EDT 8:29 PM EDT
Moon 11:56 AM EDT (9/20) 10:14 PM EDT (9/20)
Length of Visible Light 13h 03m
Length of Day
12h 12m
Waxing Crescent, 26% of the Moon is Illuminated
Sep 20
Waxing Crescent
Sep 22
First Quarter
Sep 29
Full
Oct 8
Last Quarter
Oct 15
New

Hourly Weather History & Observations

Time (EDT) Temp. Dew Point Humidity Pressure Visibility Wind Dir Wind Speed Gust Speed Precip Events Conditions
12:54 AM 66.9 °F 57.9 °F 73% 30.12 in 10.0 mi North 9.2 mph - N/A   Partly Cloudy
1:54 AM 66.9 °F 57.0 °F 70% 30.11 in 10.0 mi North 9.2 mph - N/A   Mostly Cloudy
2:54 AM 66.9 °F 57.0 °F 70% 30.09 in 10.0 mi North 9.2 mph - N/A   Overcast
3:54 AM 68.0 °F 57.9 °F 70% 30.09 in 10.0 mi North 11.5 mph - N/A   Overcast
4:54 AM 69.1 °F 57.0 °F 65% 30.10 in 10.0 mi North 8.1 mph - N/A   Overcast
5:54 AM 69.1 °F 57.0 °F 65% 30.10 in 10.0 mi North 9.2 mph - N/A   Overcast
6:54 AM 69.1 °F 57.9 °F 68% 30.10 in 10.0 mi North 9.2 mph - N/A   Overcast
7:54 AM 70.0 °F 60.1 °F 71% 30.12 in 10.0 mi North 10.4 mph - N/A   Mostly Cloudy
8:54 AM 73.0 °F 60.1 °F 64% 30.13 in 10.0 mi North 9.2 mph - N/A   Overcast
9:54 AM 75.9 °F 61.0 °F 60% 30.13 in 10.0 mi NNE 11.5 mph - N/A   Clear
10:54 AM 78.1 °F 57.9 °F 50% 30.13 in 10.0 mi NNE 16.1 mph - N/A   Clear
11:54 AM 79.0 °F 57.0 °F 47% 30.13 in 10.0 mi NNE 12.7 mph - N/A   Clear
12:54 PM 79.0 °F 57.0 °F 47% 30.12 in 10.0 mi NNE 10.4 mph - N/A   Partly Cloudy
1:54 PM 77.0 °F 55.9 °F 48% 30.10 in 10.0 mi NE 11.5 mph - N/A   Scattered Clouds
2:54 PM 78.1 °F 57.0 °F 48% 30.08 in 10.0 mi NNE 10.4 mph - N/A   Partly Cloudy
3:54 PM 77.0 °F 55.9 °F 48% 30.07 in 10.0 mi NNE 9.2 mph - N/A   Clear
4:54 PM 77.0 °F 55.0 °F 47% 30.07 in 10.0 mi NE 12.7 mph - N/A   Clear
5:54 PM 73.9 °F 57.9 °F 57% 30.07 in 10.0 mi NNE 11.5 mph - N/A   Clear
6:54 PM 72.0 °F 57.9 °F 61% 30.08 in 10.0 mi North 8.1 mph - N/A   Clear
7:54 PM 71.1 °F 57.0 °F 61% 30.08 in 10.0 mi North 8.1 mph - N/A   Clear
8:54 PM 70.0 °F 57.0 °F 63% 30.09 in 10.0 mi NNW 8.1 mph - N/A   Clear
9:54 PM 70.0 °F 57.9 °F 65% 30.09 in 10.0 mi North 6.9 mph - N/A   Clear
10:54 PM 66.9 °F 57.0 °F 70% 30.09 in 10.0 mi NNW 5.8 mph - N/A   Clear